Flag for U.S.A. Weather past 2 weeks in Tempe, Arizona, U.S.A.

Now
101 °F

Passing clouds.


Feels Like: 101 °F
Forecast: 86 / 105 °F
Wind: 10 mph from Southwest

Location: Phoenix Sky Harbor International Airport

Current Time: Jul 2, 2015 at 12:21:20 PM

Latest Report: Jul 2, 2015 at 11:51 AM


Visibility: 10 mi

Pressure: 29.82 "Hg

Humidity: 24%

Dew point: 58 °F

Location of TempeLocation

Historic Weather in Tempe — Graph

°F

Tempe temperature yesterday

Maximum temperature yesterday: 104 °F (at 2:51 PM)
Minimum temperature yesterday: 84 °F (at 5:51 AM)
Average temperature yesterday: 94 °F

Past Weeks' High & Low Weather Summary

 TemperatureHumidityPressure
High114 °F (Jun 18, 2:51 PM)63% (Jun 30, 2:51 AM)29.89 "Hg (Jun 30, 2:51 AM)
Low81 °F (Jun 20, 5:51 AM)2% (Jun 19, 6:51 PM)29.61 "Hg (Jun 30, 7:51 PM)
Average99 °F21%29.75 "Hg
* Reported Jun 17 10:51 AM — Jul 2 10:51 AM, Tempe, Weather by CustomWeather, © 2015

Note: Actual official high and low records may vary slightly from our data, if they occured in-between our weather recording intervals... More about our weather records

Advertising

Tempe weather history for previous 24 hours

 ConditionsComfort  
Time TempWeatherWind HumidityBarometerVisibility
10:51 AM
Thu, Jul 2
98 °FPassing clouds.6 mph25%29.83 "Hg10 mi
9:51 AM95 °FPassing clouds.7 mph28%29.84 "Hg10 mi
8:51 AM95 °FPassing clouds.12 mph28%29.85 "Hg10 mi
7:51 AM91 °FScattered clouds.8 mph32%29.84 "Hg10 mi
6:51 AM89 °FScattered clouds.12 mph34%29.83 "Hg10 mi
5:51 AM88 °FPartly sunny.13 mph36%29.82 "Hg10 mi
4:51 AM88 °FPassing clouds.8 mph36%29.82 "Hg10 mi
3:51 AM90 °FPassing clouds.12 mph34%29.81 "Hg10 mi
2:51 AM90 °FPassing clouds.9 mph34%29.80 "Hg10 mi
1:51 AM91 °FClear.10 mph33%29.81 "Hg10 mi
12:51 AM92 °FPassing clouds.12 mph32%29.81 "Hg10 mi
11:51 PM
Wed, Jul 1
92 °FPartly cloudy.14 mph33%29.80 "Hg10 mi
10:51 PM93 °FPartly cloudy.14 mph33%29.79 "Hg10 mi
9:51 PM94 °FPartly cloudy.15 mph33%29.78 "Hg10 mi
8:51 PM97 °FPartly cloudy.14 mph30%29.76 "Hg10 mi
7:51 PM97 °FPartly cloudy.16 mph30%29.73 "Hg10 mi
6:51 PM100 °FBroken clouds.17 mph25%29.72 "Hg10 mi
5:51 PM102 °FBroken clouds.15 mph23%29.72 "Hg10 mi
4:51 PM104 °FBroken clouds.17 mph21%29.71 "Hg10 mi
3:51 PM104 °FBroken clouds.16 mph21%29.72 "Hg10 mi
2:51 PM104 °FBroken clouds.17 mph22%29.74 "Hg10 mi
1:51 PM102 °FBroken clouds.15 mph24%29.77 "Hg10 mi
12:51 PM100 °FBroken clouds.15 mph27%29.80 "Hg10 mi
Weather by CustomWeather, © 2015

See weather overviewHow to use our weather pages